QPF
0.00 0.00 0.00 0.00 0.00 0.00 0.00 0.00 0.00 0.00 0.00 0.00 0.00 0.00 0.00 0.00 0.00 0.00 0.00 0.00 0.00 0.00 0.00 0.00 0.00 0.00 0.00 0.00 0.00 0.00 0.00 0.00 0.00 0.00 0.00 0.00 0.00 0.00 0.00 0.00 0.00 0.00 0.00 0.00 0.00
0.00 0.00 0.00 0.00 0.00 0.00 0.00 0.00 0.00 0.00 0.00 0.00 0.00 0.00 0.00 0.00 0.00 0.00 0.00 0.00 0.00 0.00 0.00 0.00 0.00 0.00 0.00 0.00 0.00 0.00 0.00 0.00 0.00 0.00 0.00 0.00 0.00 0.00 0.00 0.00 0.00 0.00 0.00 0.00 0.00
0.00 0.00 0.00 0.00 0.00 0.00 0.00 0.00 0.00 0.00 0.00 0.00 0.00 0.00 0.00 0.00 0.00 0.00 0.00 0.00 0.00 0.00 0.00 0.00 0.00 0.00 0.00 0.00 0.00 0.00 0.00 0.00 0.00 0.00 0.00 0.00 0.00 0.00 0.00 0.00 0.00 0.00 0.00 0.00 0.00
0.00 0.00 0.00 0.00 0.00 0.00 0.00 0.00 0.00 0.00 0.00 0.00 0.00 0.00 0.00 0.00 0.00 0.00 0.00 0.00 0.00 0.00 0.00 0.00 0.00 0.00 0.00 0.00 0.00 0.00 0.00 0.00 0.00 0.00 0.00 0.00 0.00 0.00 0.00 0.00 0.00 0.00 0.00 0.00 0.00
0.00 0.00 0.00 0.00 0.00 0.00 0.00 0.00 0.00 0.00 0.00 0.00 0.00 0.00 0.00 0.00 0.00 0.00 0.00 0.00 0.00 0.00 0.00 0.00 0.00 0.00 0.00 0.00 0.00 0.00 0.00 0.00 0.00 0.00 0.00 0.00 0.00 0.00 0.00 0.00 0.00 0.00 0.00 0.00 0.05
0.00 0.00 0.00 0.00 0.00 0.00 0.00 0.00 0.00 0.00 0.00 0.00 0.00 0.00 0.00 0.00 0.00 0.00 0.00 0.00 0.00 0.00 0.00 0.00 0.00 0.00 0.00 0.00 0.00 0.00 0.00 0.00 0.00 0.00 0.00 0.00 0.00 0.00 0.00 0.00 0.00 0.00 0.03 0.06 0.10
0.00 0.00 0.00 0.00 0.00 0.00 0.00 0.00 0.00 0.00 0.00 0.00 0.00 0.00 0.00 0.00 0.00 0.00 0.00 0.00 0.00 0.00 0.00 0.00 0.00 0.00 0.00 0.00 0.00 0.00 0.00 0.00 0.00 0.00 0.00 0.00 0.00 0.00 0.00 0.00 0.00 0.00 0.00 0.01 0.02
0.00 0.00 0.00 0.00 0.00 0.00 0.00 0.00 0.00 0.00 0.00 0.00 0.00 0.00 0.00 0.00 0.00 0.00 0.00 0.00 0.00 0.00 0.00 0.00 0.00 0.00 0.00 0.00 0.00 0.00 0.00 0.00 0.00 0.00 0.00 0.00 0.00 0.00 0.00 0.00 0.00 0.00 0.00 0.00 0.00
0.00 0.00 0.00 0.00 0.00 0.00 0.00 0.00 0.00 0.00 0.00 0.00 0.00 0.00 0.00 0.00 0.00 0.00 0.00 0.00 0.00 0.00 0.00 0.00 0.00 0.00 0.00 0.00 0.00 0.00 0.00 0.00 0.00 0.00 0.00 0.00 0.00 0.00 0.00 0.00 0.00 0.00 0.00 0.00 0.00
0.00 0.00 0.00 0.00 0.00 0.00 0.00 0.00 0.00 0.00 0.00 0.00 0.00 0.00 0.00 0.00 0.00 0.00 0.00 0.00 0.00 0.00 0.00 0.00 0.00 0.00 0.00 0.00 0.00 0.00 0.00 0.00 0.00 0.00 0.00 0.00 0.00 0.00 0.00 0.00 0.00 0.00 0.00 0.01 0.00
0.00 0.00 0.00 0.00 0.00 0.00 0.00 0.00 0.00 0.00 0.00 0.00 0.00 0.00 0.00 0.00 0.00 0.00 0.00 0.00 0.00 0.00 0.00 0.00 0.00 0.00 0.00 0.00 0.00 0.00 0.00 0.00 0.00 0.00 0.00 0.00 0.00 0.00 0.00 0.00 0.00 0.00 0.00 0.00 0.00
0.00 0.00 0.00 0.00 0.00 0.00 0.00 0.00 0.00 0.00 0.00 0.00 0.00 0.00 0.00 0.00 0.00 0.00 0.00 0.00 0.00 0.00 0.00 0.00 0.00 0.00 0.00 0.00 0.00 0.00 0.00 0.00 0.00 0.00 0.00 0.00 0.00 0.00 0.00 0.00 0.00 0.00 0.00 0.00 0.00
0.00 0.00 0.00 0.00 0.00 0.00 0.00 0.00 0.00 0.00 0.00 0.00 0.00 0.00 0.00 0.00 0.00 0.00 0.00 0.00 0.00 0.00 0.00 0.00 0.00 0.00 0.00 0.00 0.00 0.00 0.00 0.00 0.00 0.00 0.00 0.00 0.00 0.00 0.00 0.00 0.00 0.00 0.00 0.00 0.00
0.00 0.00 0.00 0.00 0.00 0.00 0.00 0.00 0.00 0.00 0.00 0.00 0.00 0.00 0.00 0.00 0.00 0.00 0.00 0.00 0.00 0.00 0.00 0.00 0.00 0.00 0.00 0.00 0.00 0.00 0.00 0.00 0.00 0.00 0.00 0.00 0.00 0.00 0.00 0.00 0.00 0.00 0.00 0.00 0.00
0.00 0.00 0.00 0.00 0.00 0.00 0.00 0.00 0.00 0.00 0.00 0.00 0.00 0.00 0.00 0.00 0.00 0.00 0.00 0.00 0.00 0.00 0.00 0.00 0.00 0.00 0.00 0.00 0.00 0.00 0.00 0.00 0.00 0.00 0.00 0.00 0.00 0.00 0.00 0.00 0.00 0.00 0.00 0.00 0.00
0.00 0.00 0.00 0.00 0.00 0.00 0.00 0.00 0.00 0.00 0.00 0.00 0.00 0.00 0.00 0.00 0.00 0.00 0.00 0.00 0.00 0.00 0.00 0.00 0.00 0.00 0.00 0.00 0.00 0.00 0.00 0.00 0.00 0.00 0.00 0.00 0.00 0.00 0.00 0.00 0.00 0.00 0.00 0.00 0.00
0.00 0.00 0.00 0.00 0.00 0.00 0.00 0.00 0.00 0.00 0.00 0.00 0.00 0.00 0.00 0.00 0.00 0.00 0.00 0.00 0.00 0.00 0.00 0.00 0.00 0.00 0.00 0.00 0.00 0.00 0.00 0.00 0.00 0.00 0.00 0.00 0.00 0.00 0.00 0.00 0.00 0.00 0.00 0.00 0.01
0.00 0.00 0.00 0.00 0.00 0.00 0.00 0.00 0.00 0.00 0.00 0.00 0.00 0.00 0.00 0.00 0.00 0.00 0.00 0.00 0.00 0.00 0.00 0.00 0.00 0.00 0.00 0.00 0.00 0.00 0.00 0.00 0.00 0.00 0.00 0.00 0.00 0.00 0.00 0.00 0.00 0.00 0.00 0.02 0.03
0.00 0.00 0.00 0.00 0.00 0.00 0.00 0.00 0.00 0.00 0.00 0.00 0.00 0.00 0.00 0.00 0.00 0.00 0.00 0.00 0.00 0.00 0.00 0.00 0.00 0.00 0.00 0.00 0.00 0.00 0.00 0.00 0.00 0.00 0.00 0.00 0.00 0.00 0.00 0.00 0.00 0.00 0.15 0.41 0.39
0.00 0.00 0.00 0.00 0.00 0.00 0.00 0.00 0.00 0.00 0.00 0.00 0.00 0.00 0.00 0.00 0.00 0.00 0.00 0.00 0.00 0.00 0.00 0.00 0.00 0.00 0.00 0.00 0.00 0.00 0.00 0.00 0.00 0.00 0.00 0.00 0.00 0.00 0.00 0.00 0.00 0.03 0.32 0.54 0.16
0.00 0.00 0.00 0.00 0.00 0.00 0.00 0.00 0.00 0.00 0.00 0.00 0.00 0.00 0.00 0.00 0.00 0.00 0.00 0.00 0.00 0.00 0.00 0.00 0.00 0.00 0.00 0.00 0.00 0.00 0.00 0.00 0.00 0.00 0.00 0.00 0.00 0.00 0.00 0.00 0.00 0.01 0.29 0.42 0.04
0.00 0.00 0.00 0.00 0.00 0.00 0.00 0.00 0.00 0.00 0.00 0.00 0.00 0.00 0.00 0.00 0.00 0.00 0.00 0.00 0.00 0.00 0.00 0.00 0.00 0.00 0.00 0.00 0.00 0.00 0.00 0.00 0.00 0.00 0.00 0.00 0.00 0.00 0.00 0.00 0.00 0.00 0.00 0.00 0.00
0.00 0.00 0.00 0.00 0.00 0.00 0.00 0.00 0.00 0.00 0.00 0.00 0.00 0.00 0.00 0.00 0.00 0.00 0.00 0.00 0.00 0.00 0.00 0.00 0.00 0.00 0.00 0.00 0.00 0.00 0.00 0.00 0.00 0.00 0.00 0.00 0.00 0.00 0.00 0.00 0.00 0.00 0.00 0.00 0.00
0.00 0.00 0.00 0.00 0.00 0.00 0.00 0.00 0.00 0.00 0.00 0.00 0.00 0.00 0.00 0.00 0.00 0.00 0.00 0.00 0.00 0.00 0.00 0.00 0.00 0.00 0.00 0.00 0.00 0.00 0.00 0.00 0.00 0.00 0.00 0.00 0.00 0.00 0.00 0.00 0.00 0.00 0.00 0.00 0.00
0.00 0.00 0.00 0.00 0.00 0.00 0.00 0.00 0.00 0.00 0.00 0.00 0.00 0.00 0.00 0.00 0.00 0.00 0.00 0.00 0.00 0.00 0.00 0.00 0.00 0.00 0.00 0.00 0.00 0.00 0.00 0.00 0.00 0.00 0.00 0.00 0.00 0.00 0.00 0.00 0.00 0.00 0.00 0.00 0.00
0.00 0.00 0.00 0.00 0.00 0.00 0.00 0.00 0.00 0.00 0.00 0.00 0.00 0.00 0.00 0.00 0.00 0.00 0.00 0.00 0.00 0.00 0.00 0.00 0.00 0.00 0.00 0.00 0.00 0.00 0.00 0.00 0.00 0.00 0.00 0.00 0.00 0.00 0.00 0.00 0.00 0.00 0.00 0.00 0.00
0.00 0.00 0.00 0.00 0.00 0.00 0.00 0.00 0.00 0.00 0.00 0.00 0.00 0.00 0.00 0.00 0.00 0.00 0.00 0.00 0.00 0.00 0.00 0.00 0.00 0.00 0.00 0.00 0.00 0.00 0.00 0.00 0.00 0.00 0.00 0.00 0.00 0.00 0.00 0.00 0.00 0.00 0.00 0.00 0.00
MSLP
1015.96 1015.64 1015.04 1014.95 1014.54 1014.18 1013.88 1013.70 1013.41 1013.10 1012.95 1012.69 1012.51 1012.34 1011.94 1011.76 1011.53 1011.43 1010.13 1007.30 1007.17 1006.99 1007.27 1007.57 1007.86 1007.64 1007.40 1007.52 1007.18 1007.66 1008.87 1009.59 1010.05 1009.11 1007.87 1007.52 1008.00 1007.62 1007.53 1007.83 1008.20 1008.37 1008.28 1008.29 1009.37
1016.23 1015.76 1015.45 1015.02 1014.56 1013.95 1013.78 1013.58 1013.13 1012.89 1012.65 1012.47 1012.35 1012.17 1011.82 1011.74 1011.39 1009.94 1006.85 1006.64 1006.76 1006.95 1007.39 1007.46 1007.58 1007.66 1007.60 1007.51 1007.27 1007.74 1008.57 1008.12 1007.84 1007.38 1007.05 1006.99 1007.30 1006.89 1007.28 1007.76 1008.37 1008.43 1008.32 1008.83 1009.41
1016.06 1015.55 1015.05 1014.65 1014.42 1013.91 1013.65 1013.34 1012.97 1012.65 1012.40 1012.22 1011.99 1011.94 1011.65 1011.67 1010.83 1007.16 1005.97 1006.44 1006.76 1006.99 1007.04 1007.21 1007.35 1007.53 1007.56 1007.26 1007.14 1007.44 1007.52 1007.01 1006.24 1006.35 1006.20 1006.57 1006.86 1006.87 1007.17 1007.34 1007.97 1008.33 1008.63 1009.45 1010.32
1016.08 1015.54 1015.25 1014.85 1014.55 1014.03 1013.61 1013.14 1012.55 1012.35 1012.14 1011.95 1011.72 1011.56 1011.38 1011.46 1009.26 1006.18 1005.91 1006.33 1006.66 1007.23 1007.21 1007.31 1007.43 1007.59 1007.48 1007.17 1006.82 1007.01 1006.51 1006.28 1005.47 1004.45 1005.48 1005.78 1005.95 1006.08 1006.35 1006.82 1006.89 1008.56 1008.89 1009.58 1010.76
1016.15 1015.66 1015.39 1014.94 1014.56 1014.01 1013.62 1012.97 1012.47 1012.15 1011.78 1011.68 1011.46 1011.17 1011.04 1010.14 1007.36 1006.09 1006.12 1006.47 1007.05 1007.47 1007.37 1007.47 1007.53 1007.46 1007.38 1007.09 1006.81 1006.64 1006.33 1005.81 1005.31 1004.58 1004.50 1004.78 1004.99 1005.68 1006.32 1006.68 1007.16 1008.29 1009.12 1010.20 1010.75
1016.33 1015.82 1015.38 1014.92 1014.51 1013.90 1013.31 1012.67 1012.14 1011.70 1011.51 1011.45 1011.15 1011.06 1010.59 1008.73 1006.02 1006.05 1006.31 1006.76 1006.97 1007.33 1007.32 1007.34 1007.25 1007.13 1007.19 1007.05 1006.92 1006.37 1005.83 1005.23 1005.14 1004.67 1004.70 1004.67 1005.19 1005.15 1007.01 1006.91 1007.44 1008.61 1009.54 1009.17 1008.98
1016.44 1015.92 1015.40 1014.83 1014.29 1013.73 1012.95 1012.34 1011.78 1011.29 1011.12 1011.09 1011.00 1010.80 1009.87 1007.09 1005.88 1006.17 1006.51 1006.75 1006.69 1006.82 1007.09 1007.02 1006.98 1007.11 1007.07 1006.91 1006.53 1006.22 1006.07 1005.27 1004.94 1004.96 1004.85 1004.73 1005.72 1006.15 1006.82 1007.21 1008.03 1009.04 1009.66 1009.99 1009.90
1016.44 1015.96 1015.38 1014.76 1014.03 1013.42 1012.60 1011.95 1011.33 1010.73 1010.80 1010.84 1010.90 1010.60 1008.49 1006.01 1005.97 1006.51 1006.66 1006.80 1006.68 1006.83 1006.86 1006.84 1007.02 1007.15 1007.11 1006.93 1007.12 1007.23 1007.11 1006.64 1005.42 1005.12 1004.72 1004.82 1006.74 1007.21 1007.02 1007.44 1008.51 1009.30 1009.90 1010.02 1009.94
1016.45 1015.87 1015.29 1014.61 1013.93 1013.24 1012.34 1011.61 1011.04 1010.57 1010.55 1010.61 1010.70 1010.01 1007.51 1006.15 1006.19 1005.89 1006.05 1006.20 1006.69 1006.83 1006.78 1006.75 1006.88 1007.45 1007.56 1008.06 1008.56 1008.40 1007.81 1007.24 1006.31 1005.40 1005.32 1006.01 1007.28 1007.32 1007.55 1007.96 1008.77 1009.52 1009.48 1009.50 1009.75
1016.47 1015.91 1015.26 1014.46 1013.73 1012.93 1012.04 1011.32 1010.97 1010.70 1010.58 1010.46 1010.15 1009.59 1006.85 1005.50 1005.09 1005.18 1005.49 1005.76 1006.19 1006.74 1006.91 1007.04 1007.57 1008.19 1008.73 1009.00 1009.28 1008.68 1008.22 1007.44 1006.89 1006.07 1005.85 1006.66 1007.71 1008.29 1008.54 1009.06 1009.45 1009.73 1009.72 1009.65 1010.76
1016.61 1015.85 1015.13 1014.18 1013.45 1012.85 1011.98 1011.29 1011.40 1010.78 1010.29 1009.24 1008.69 1007.83 1006.27 1005.04 1004.32 1004.78 1005.07 1005.71 1005.93 1006.60 1007.22 1007.55 1008.32 1008.56 1008.60 1008.74 1008.74 1008.44 1008.25 1007.86 1006.61 1006.22 1006.26 1007.04 1007.83 1008.02 1008.64 1009.30 1009.77 1010.21 1010.09 1010.30 1011.26
1016.56 1015.78 1015.05 1013.75 1013.18 1012.70 1012.42 1011.91 1011.79 1012.06 1010.41 1008.05 1007.20 1006.72 1005.58 1005.46 1005.35 1004.53 1004.72 1005.60 1006.14 1006.86 1007.32 1008.00 1007.93 1007.93 1008.09 1008.29 1008.48 1008.49 1008.40 1007.53 1006.50 1005.84 1006.35 1007.14 1008.36 1008.37 1008.94 1009.10 1009.21 1009.70 1010.30 1010.87 1011.19
1016.55 1015.80 1014.73 1013.52 1013.03 1012.57 1012.59 1011.43 1010.75 1010.92 1010.48 1007.26 1006.06 1005.43 1004.72 1005.18 1005.08 1004.45 1004.61 1005.13 1005.83 1006.72 1007.27 1007.78 1007.11 1006.94 1007.59 1007.70 1008.02 1007.87 1008.04 1007.39 1007.11 1006.48 1006.62 1007.23 1009.04 1009.38 1009.23 1009.54 1010.05 1010.03 1010.45 1010.90 1010.77
1016.51 1015.64 1014.56 1014.00 1013.11 1013.47 1012.08 1010.90 1010.56 1010.46 1010.02 1006.87 1005.30 1003.78 1003.94 1004.13 1004.21 1003.63 1003.92 1004.64 1005.63 1006.22 1007.01 1007.29 1006.52 1006.49 1006.90 1006.99 1007.29 1007.31 1006.20 1006.71 1007.08 1007.11 1007.37 1007.55 1009.23 1009.40 1009.35 1009.96 1010.35 1009.85 1010.59 1010.70 1010.62
1016.00 1015.55 1015.42 1015.34 1014.53 1013.47 1011.53 1010.77 1010.18 1010.03 1009.35 1005.41 1004.08 1002.96 1003.15 1003.49 1003.18 1003.24 1003.37 1004.22 1005.22 1005.98 1006.72 1006.70 1006.18 1006.14 1006.21 1006.04 1006.33 1006.28 1005.78 1006.52 1006.78 1007.50 1008.05 1008.43 1009.38 1009.66 1009.60 1010.29 1010.25 1009.59 1010.12 1010.08 1010.31
1016.05 1015.75 1015.58 1014.79 1014.48 1012.35 1011.50 1010.91 1010.36 1010.68 1008.15 1005.02 1003.64 1003.34 1003.58 1003.35 1003.16 1003.42 1003.84 1004.17 1004.88 1005.91 1006.26 1006.26 1005.69 1005.59 1005.13 1004.98 1005.55 1005.61 1006.11 1007.15 1007.87 1008.68 1009.19 1009.00 1009.36 1009.43 1009.79 1009.23 1009.00 1008.35 1008.51 1009.52 1009.88
1015.64 1015.15 1015.23 1014.48 1013.00 1011.88 1011.73 1011.37 1011.70 1010.41 1007.47 1005.91 1004.69 1004.00 1003.82 1003.59 1003.66 1003.80 1004.39 1004.93 1005.62 1006.49 1006.84 1006.30 1005.43 1004.79 1004.64 1004.91 1004.76 1005.65 1007.11 1008.15 1009.42 1010.04 1010.26 1009.37 1009.42 1008.95 1008.88 1008.62 1008.53 1008.18 1008.10 1009.34 1010.25
1014.71 1013.75 1013.42 1013.01 1012.27 1012.07 1012.13 1012.29 1011.96 1009.74 1008.29 1006.43 1005.49 1004.62 1004.29 1004.05 1004.08 1004.20 1004.77 1005.47 1005.75 1006.21 1007.09 1006.62 1005.44 1004.25 1003.88 1004.24 1004.69 1005.46 1006.67 1008.29 1009.76 1011.06 1010.70 1009.73 1009.37 1008.45 1008.48 1008.52 1008.29 1008.36 1009.53 1010.12 1011.01
1013.89 1013.23 1013.19 1011.53 1012.03 1012.35 1012.69 1012.85 1011.32 1009.97 1008.57 1007.48 1006.25 1005.64 1005.15 1004.53 1004.46 1004.49 1004.89 1005.13 1005.15 1005.64 1006.65 1006.44 1005.54 1004.08 1003.52 1003.64 1004.12 1005.31 1006.34 1007.24 1009.37 1011.08 1011.14 1010.28 1009.41 1008.73 1008.84 1009.30 1009.42 1009.73 1010.39 1009.95 1012.79
1014.87 1014.16 1012.51 1011.00 1011.46 1012.07 1012.72 1012.28 1011.18 1009.81 1008.72 1008.02 1007.51 1006.77 1006.32 1005.58 1005.15 1005.01 1005.04 1004.33 1004.56 1004.75 1005.28 1005.87 1005.73 1004.29 1003.47 1003.29 1003.56 1004.18 1005.39 1007.31 1009.29 1010.92 1011.40 1010.73 1010.05 1009.68 1009.81 1010.11 1010.45 1010.33 1010.11 1010.31 1011.57
1014.87 1013.97 1011.48 1011.08 1011.22 1012.32 1012.74 1012.11 1010.73 1009.47 1008.76 1008.57 1008.08 1007.53 1006.92 1006.31 1005.77 1005.43 1005.11 1004.41 1004.19 1004.23 1004.60 1005.58 1006.05 1004.84 1004.07 1003.77 1003.70 1004.40 1005.41 1007.15 1008.86 1010.00 1010.71 1010.84 1010.23 1008.30 1008.85 1009.52 1009.72 1009.79 1008.79 1008.38 1008.35
1015.82 1014.28 1011.92 1011.80 1012.39 1013.09 1012.68 1011.49 1010.59 1009.60 1009.17 1008.86 1008.40 1007.91 1007.41 1006.82 1006.21 1005.77 1004.97 1004.24 1004.06 1004.15 1004.68 1005.12 1006.10 1005.81 1004.82 1004.00 1003.60 1003.87 1004.80 1006.11 1008.45 1009.96 1010.40 1010.17 1009.01 1008.33 1008.22 1008.61 1009.01 1009.00 1008.67 1008.94 1009.74
1016.82 1015.36 1012.39 1012.19 1013.15 1013.36 1012.44 1011.49 1010.49 1009.71 1009.21 1008.98 1008.42 1007.82 1007.51 1007.46 1007.23 1006.00 1005.02 1003.99 1004.08 1004.06 1004.20 1005.07 1005.74 1006.10 1005.29 1004.61 1003.84 1003.81 1004.35 1005.62 1006.90 1008.01 1009.30 1009.87 1008.72 1008.45 1008.55 1009.16 1009.30 1009.52 1009.59 1010.03 1010.53
1017.11 1016.10 1014.26 1013.55 1013.79 1013.50 1012.93 1011.82 1010.83 1009.57 1009.18 1008.87 1008.49 1008.08 1008.01 1007.71 1007.20 1006.50 1005.65 1004.35 1003.84 1003.68 1003.88 1004.51 1005.64 1005.67 1005.35 1004.50 1003.93 1003.79 1004.21 1004.84 1005.99 1007.48 1008.18 1008.24 1008.02 1008.64 1008.75 1009.25 1009.39 1009.50 1009.68 1010.14 1010.88
1017.38 1017.47 1016.74 1015.52 1014.96 1014.45 1013.57 1012.35 1011.48 1010.67 1009.76 1009.14 1008.84 1008.83 1008.93 1008.42 1007.42 1006.87 1005.84 1005.30 1004.35 1004.10 1004.38 1005.10 1005.83 1005.50 1004.67 1004.16 1003.85 1003.50 1003.50 1004.13 1004.79 1005.48 1006.34 1006.24 1007.17 1006.84 1007.39 1008.23 1008.72 1009.00 1009.49 1010.46 1010.76
1018.18 1018.20 1017.23 1016.53 1015.74 1014.98 1013.97 1013.59 1012.52 1011.85 1011.08 1010.30 1010.01 1009.42 1008.86 1008.60 1007.91 1007.04 1006.13 1005.68 1005.44 1005.00 1005.18 1005.70 1006.06 1005.91 1005.25 1004.43 1004.08 1003.57 1003.19 1002.92 1003.40 1004.17 1004.92 1005.58 1006.36 1005.85 1006.85 1008.16 1008.96 1009.00 1009.26 1010.11 1010.35
1019.05 1018.52 1018.24 1017.22 1016.50 1015.65 1015.01 1014.03 1013.17 1012.57 1011.40 1010.75 1010.31 1009.72 1008.80 1008.48 1008.35 1007.31 1006.34 1005.57 1005.46 1005.80 1005.99 1006.43 1006.78 1006.88 1006.25 1005.33 1004.71 1004.23 1003.07 1002.67 1002.93 1003.49 1004.21 1005.09 1005.46 1006.09 1007.33 1007.63 1008.51 1008.84 1009.31 1010.06 1010.15
Thickness
5739 5744 5751 5754 5759 5765 5769 5773 5778 5784 5787 5790 5793 5796 5800 5802 5806 5807 5812 5838 5840 5843 5840 5835 5831 5833 5834 5823 5831 5825 5784 5772 5768 5780 5796 5810 5796 5812 5820 5808 5808 5810 5808 5812 5808
5735 5742 5746 5752 5757 5766 5769 5773 5779 5784 5788 5791 5793 5796 5800 5802 5806 5813 5844 5846 5845 5844 5835 5827 5822 5825 5815 5816 5820 5803 5778 5792 5804 5809 5807 5810 5808 5814 5809 5803 5799 5805 5815 5813 5808
5734 5741 5748 5754 5758 5765 5769 5773 5778 5784 5788 5792 5794 5796 5800 5801 5806 5832 5850 5847 5845 5844 5841 5835 5831 5824 5811 5818 5817 5805 5792 5812 5821 5820 5822 5807 5807 5816 5808 5800 5804 5800 5805 5804 5796
5731 5739 5743 5749 5754 5761 5766 5772 5780 5784 5788 5792 5795 5798 5800 5800 5798 5842 5849 5847 5845 5840 5837 5829 5822 5810 5805 5805 5821 5803 5818 5823 5830 5842 5825 5815 5821 5816 5819 5815 5823 5809 5810 5803 5790
5726 5734 5739 5745 5750 5758 5764 5771 5778 5783 5789 5792 5795 5799 5802 5804 5817 5845 5846 5844 5840 5835 5828 5821 5813 5811 5801 5811 5816 5809 5819 5831 5837 5840 5836 5835 5824 5821 5816 5824 5825 5817 5807 5795 5790
5721 5728 5735 5742 5748 5756 5763 5771 5778 5784 5788 5791 5795 5798 5801 5795 5842 5843 5842 5839 5836 5831 5826 5824 5818 5821 5812 5812 5811 5823 5824 5830 5832 5836 5835 5827 5823 5833 5813 5826 5820 5809 5797 5801 5802
5716 5723 5730 5738 5746 5753 5763 5770 5778 5785 5788 5791 5794 5798 5798 5808 5841 5840 5838 5834 5837 5834 5823 5830 5830 5819 5819 5809 5827 5825 5814 5825 5828 5829 5824 5829 5809 5812 5819 5822 5810 5802 5799 5796 5793
5711 5718 5726 5734 5744 5752 5762 5770 5779 5786 5788 5790 5791 5794 5796 5836 5838 5833 5833 5830 5835 5835 5832 5834 5833 5822 5817 5825 5810 5802 5802 5784 5821 5826 5829 5824 5779 5804 5821 5815 5805 5802 5798 5795 5789
5706 5715 5723 5731 5740 5749 5760 5769 5777 5783 5786 5788 5790 5793 5796 5832 5823 5835 5835 5827 5827 5829 5831 5835 5829 5812 5812 5788 5770 5779 5771 5784 5796 5824 5820 5808 5784 5806 5817 5810 5801 5794 5797 5797 5794
5700 5709 5718 5728 5738 5748 5759 5767 5772 5777 5782 5786 5789 5786 5810 5815 5830 5833 5837 5834 5823 5820 5816 5814 5800 5784 5779 5769 5745 5767 5776 5788 5783 5811 5813 5793 5783 5794 5803 5799 5794 5790 5792 5795 5783
5693 5704 5714 5726 5736 5744 5755 5764 5765 5770 5778 5785 5791 5791 5806 5827 5838 5827 5834 5824 5823 5812 5786 5799 5779 5762 5777 5782 5784 5787 5781 5779 5799 5813 5807 5792 5783 5794 5795 5793 5786 5782 5784 5785 5779
5688 5700 5710 5725 5733 5740 5746 5753 5753 5756 5754 5791 5796 5799 5815 5819 5803 5821 5833 5807 5800 5782 5791 5780 5764 5783 5793 5790 5784 5778 5771 5775 5796 5813 5806 5791 5774 5789 5787 5791 5793 5787 5781 5781 5777
5684 5694 5707 5721 5729 5736 5739 5750 5761 5761 5749 5779 5797 5800 5806 5812 5799 5805 5820 5809 5796 5782 5781 5767 5786 5801 5790 5787 5779 5778 5769 5773 5778 5798 5800 5794 5761 5768 5784 5785 5784 5787 5784 5782 5780
5680 5691 5703 5713 5724 5722 5737 5752 5757 5760 5722 5764 5783 5804 5810 5811 5797 5823 5825 5810 5796 5780 5780 5777 5795 5795 5786 5781 5782 5764 5797 5793 5786 5778 5758 5789 5738 5763 5771 5769 5773 5781 5776 5777 5778
5678 5685 5691 5696 5704 5717 5739 5747 5755 5755 5697 5782 5790 5822 5812 5800 5809 5808 5826 5809 5783 5782 5780 5773 5787 5786 5782 5787 5792 5781 5803 5794 5794 5773 5769 5770 5742 5756 5764 5760 5764 5779 5774 5778 5779
5670 5678 5684 5693 5699 5723 5733 5740 5745 5704 5698 5763 5790 5785 5785 5796 5800 5802 5801 5810 5801 5782 5785 5781 5802 5797 5795 5805 5802 5808 5796 5773 5762 5749 5733 5757 5749 5748 5749 5771 5775 5789 5791 5782 5781
5667 5677 5680 5688 5705 5720 5724 5725 5688 5681 5748 5748 5760 5777 5774 5774 5781 5785 5776 5772 5759 5744 5745 5766 5780 5798 5805 5788 5799 5786 5757 5723 5726 5715 5720 5752 5746 5752 5772 5779 5784 5789 5794 5782 5772
5668 5680 5687 5692 5706 5711 5711 5695 5677 5713 5716 5750 5756 5763 5760 5771 5771 5772 5761 5753 5767 5761 5737 5738 5742 5785 5804 5789 5778 5772 5760 5721 5711 5704 5722 5747 5738 5756 5780 5782 5784 5789 5780 5774 5764
5667 5676 5679 5697 5700 5699 5690 5666 5682 5698 5723 5727 5737 5735 5738 5758 5766 5764 5753 5751 5764 5763 5740 5729 5743 5793 5801 5803 5795 5774 5758 5770 5723 5722 5717 5726 5753 5770 5775 5770 5770 5771 5765 5767 5728
5649 5657 5671 5696 5695 5689 5673 5670 5688 5706 5719 5719 5711 5724 5722 5736 5744 5746 5743 5769 5767 5773 5771 5756 5736 5774 5793 5801 5800 5785 5784 5747 5726 5713 5711 5716 5735 5733 5749 5753 5756 5759 5763 5762 5744
5642 5656 5677 5684 5686 5671 5660 5666 5690 5708 5713 5705 5706 5711 5721 5730 5737 5736 5742 5766 5775 5772 5770 5756 5744 5760 5783 5774 5775 5771 5762 5744 5737 5723 5706 5700 5716 5761 5760 5760 5758 5764 5775 5776 5776
5618 5645 5665 5668 5652 5647 5659 5679 5691 5696 5701 5703 5707 5708 5711 5722 5725 5732 5737 5756 5771 5774 5753 5760 5731 5728 5749 5780 5792 5786 5772 5756 5725 5731 5714 5712 5724 5767 5767 5770 5770 5768 5779 5772 5764
5601 5613 5650 5656 5634 5639 5657 5671 5683 5688 5692 5698 5702 5713 5716 5713 5706 5726 5741 5767 5768 5767 5760 5756 5728 5723 5732 5753 5777 5775 5775 5756 5743 5734 5718 5711 5727 5760 5763 5759 5765 5762 5762 5758 5749
5596 5615 5625 5633 5630 5642 5650 5660 5668 5691 5690 5697 5701 5709 5705 5705 5710 5718 5732 5757 5765 5769 5768 5763 5728 5732 5731 5740 5762 5765 5772 5764 5749 5726 5726 5727 5753 5745 5754 5751 5756 5761 5762 5754 5743
5584 5593 5598 5607 5620 5625 5636 5651 5654 5659 5679 5689 5690 5691 5688 5687 5707 5708 5731 5738 5756 5761 5759 5748 5730 5739 5754 5759 5763 5768 5775 5759 5757 5754 5746 5760 5752 5764 5767 5758 5762 5764 5759 5748 5745
5570 5573 5580 5591 5602 5615 5620 5625 5639 5648 5658 5663 5668 5679 5684 5686 5699 5711 5722 5726 5729 5745 5748 5737 5730 5741 5745 5759 5760 5761 5773 5780 5777 5764 5762 5761 5755 5783 5768 5765 5759 5761 5760 5749 5750
5549 5558 5565 5582 5590 5602 5605 5618 5630 5638 5651 5662 5667 5669 5679 5691 5697 5710 5720 5728 5737 5735 5728 5729 5718 5713 5721 5737 5745 5732 5766 5773 5775 5777 5765 5759 5775 5770 5763 5768 5763 5761 5756 5750 5751